This is the latest recevied weather packets stored in our database for station/object WB3EGK. If no packets are shown the sender has not sent any weather packets the latest 10 day(s).
| Time | Temp. | Humidity | Pressure | Rain* | Wind** | Luminosity | Snow |
|---|---|---|---|---|---|---|---|
| 1778107035 | 8.33° C | 1% | 1010.6 hPa | 0 mm | - | 35 W/m² | - |
| 1778106731 | 8.33° C | 1% | 1010.5 hPa | 0 mm | - | 42 W/m² | - |
| 1778106428 | 8.33° C | 1% | 1010.3 hPa | 0 mm | - | 62 W/m² | - |
| 1778106123 | 8.33° C | 1% | 1010 hPa | 0 mm | - | 56 W/m² | - |
| 1778105821 | 8.33° C | 1% | 1010 hPa | 0 mm | - | 71 W/m² | - |
| 1778105519 | 8.33° C | 1% | 1010.3 hPa | 0 mm | - | 66 W/m² | - |
| 1778105216 | 8.33° C | 1% | 1009.9 hPa | 0 mm | - | 52 W/m² | - |
| 1778104911 | 8.89° C | 1% | 1010 hPa | 0 mm | - | 61 W/m² | - |
| 1778104608 | 8.89° C | 1% | 1009.9 hPa | 0 mm | - | 58 W/m² | - |
| 1778104303 | 8.89° C | 1% | 1009.8 hPa | 0 mm | - | 55 W/m² | - |
| 1778104000 | 8.89° C | 1% | 1009.6 hPa | 0 mm | - | 59 W/m² | - |
| 1778103698 | 8.89° C | 1% | 1009.7 hPa | 0 mm | - | 69 W/m² | - |
| 1778103396 | 9.44° C | 1% | 1009.7 hPa | 0 mm | - | 74 W/m² | - |
| 1778103093 | 9.44° C | 1% | 1009.6 hPa | 0 mm | - | 91 W/m² | - |
| 1778102790 | 9.44° C | 1% | 1009.9 hPa | 0 mm | - | 133 W/m² | - |
| 1778102485 | 9.44° C | 1% | 1009.1 hPa | 0 mm | - | 140 W/m² | - |
| 1778102181 | 9.44° C | 1% | 1009.3 hPa | 0 mm | - | 147 W/m² | - |
| 1778101878 | 10° C | 1% | 1009.3 hPa | 0 mm | - | 179 W/m² | - |
| 1778101575 | 9.44° C | 1% | 1009.3 hPa | 0 mm | - | 127 W/m² | - |
| 1778101271 | 9.44° C | 1% | 1009.1 hPa | 0 mm | - | 96 W/m² | - |
| 1778100968 | 9.44° C | 1% | 1009.1 hPa | 0 mm | - | 108 W/m² | - |
| 1778100663 | 10° C | 1% | 1009 hPa | 0 mm | - | 128 W/m² | - |
| 1778100361 | 10° C | 1% | 1009 hPa | 0 mm | - | 206 W/m² | - |
| 1778100058 | 10° C | 1% | 1009.1 hPa | 0 mm | - | 182 W/m² | - |
| 1778099756 | 10.56° C | 1% | 1008.9 hPa | 0 mm | - | 295 W/m² | - |
* Rain latest hour (hover to see other rain measurements)
** Current wind speed in m/s (hover to see current wind gust speed)